TimeCDT,TemperatureF,Dew PointF,Humidity,Sea Level PressureIn,VisibilityMPH,Wind Direction,Wind SpeedMPH,Gust SpeedMPH,PrecipitationIn,Events,Conditions,WindDirDegrees,DateUTC
12:54 AM,37.9,35.1,89,29.85,10.0,North,9.2,-,0.00,Rain,Light Rain,360,2013-03-18 05:54:00
1:52 AM,37.4,35.6,93,29.83,7.0,NE,17.3,24.2,0.12,Rain,Rain,40,2013-03-18 06:52:00
1:54 AM,37.9,35.1,89,29.83,5.0,NE,15.0,24.2,0.12,Rain,Light Rain,50,2013-03-18 06:54:00
2:04 AM,37.4,35.6,93,29.81,3.0,ESE,13.8,21.9,0.09,Rain-Thunderstorm,Heavy Rain,110,2013-03-18 07:04:00
2:15 AM,39.2,35.6,87,29.78,3.0,East,12.7,21.9,0.17,Rain-Thunderstorm,Heavy Rain,100,2013-03-18 07:15:00
2:54 AM,39.9,37.0,89,29.74,4.0,ESE,11.5,-,0.46,Rain,Heavy Rain,110,2013-03-18 07:54:00
3:54 AM,39.9,37.0,89,29.72,10.0,East,6.9,-,0.17,Rain,Light Rain,100,2013-03-18 08:54:00
4:22 AM,39.2,37.4,93,29.69,9.0,East,10.4,-,0.05,Rain,Rain,100,2013-03-18 09:22:00
4:35 AM,39.2,37.4,93,29.67,8.0,East,9.2,-,0.07,Rain,Rain,100,2013-03-18 09:35:00
4:44 AM,39.2,37.4,93,29.66,10.0,ESE,8.1,-,0.08,Rain,Light Rain,120,2013-03-18 09:44:00
4:54 AM,39.9,37.9,93,29.68,10.0,ESE,5.8,-,0.09,Rain,Light Rain,120,2013-03-18 09:54:00
5:54 AM,41.0,39.0,93,29.65,3.0,East,4.6,-,0.02,Rain,Light Rain,90,2013-03-18 10:54:00
6:08 AM,41.0,39.2,93,29.65,9.0,Calm,Calm,-,0.00,,Overcast,0,2013-03-18 11:08:00
6:54 AM,42.1,39.9,92,29.67,3.0,Calm,Calm,-,0.00,,Overcast,0,2013-03-18 11:54:00
7:54 AM,43.0,39.9,89,29.67,3.0,Calm,Calm,-,N/A,,Overcast,0,2013-03-18 12:54:00
8:24 AM,42.8,41.0,93,29.69,1.8,SW,3.5,-,N/A,,Overcast,220,2013-03-18 13:24:00
8:37 AM,44.6,42.8,93,29.69,1.2,SW,4.6,-,N/A,,Overcast,220,2013-03-18 13:37:00
8:54 AM,44.1,42.1,93,29.69,1.8,SW,4.6,-,N/A,,Overcast,220,2013-03-18 13:54:00
9:03 AM,44.6,42.8,93,29.70,2.5,West,8.1,-,N/A,,Overcast,260,2013-03-18 14:03:00
9:19 AM,44.6,42.8,93,29.70,4.0,West,11.5,-,N/A,,Overcast,270,2013-03-18 14:19:00
9:54 AM,45.0,42.1,90,29.71,3.0,West,10.4,-,N/A,,Overcast,270,2013-03-18 14:54:00
10:21 AM,44.6,42.8,93,29.72,10.0,West,12.7,-,N/A,,Overcast,260,2013-03-18 15:21:00
10:54 AM,46.9,43.0,86,29.73,6.0,West,15.0,-,N/A,,Overcast,260,2013-03-18 15:54:00
11:54 AM,48.0,43.0,83,29.73,10.0,West,13.8,-,N/A,,Overcast,260,2013-03-18 16:54:00
12:54 PM,48.9,43.0,80,29.75,10.0,West,16.1,-,N/A,,Overcast,260,2013-03-18 17:54:00
1:05 PM,48.2,42.8,82,29.74,10.0,West,16.1,21.9,N/A,,Overcast,270,2013-03-18 18:05:00
1:54 PM,48.0,41.0,77,29.75,10.0,West,15.0,-,N/A,,Overcast,270,2013-03-18 18:54:00
2:54 PM,48.0,39.9,74,29.74,10.0,West,12.7,-,N/A,,Overcast,260,2013-03-18 19:54:00
3:54 PM,46.0,37.9,73,29.80,10.0,West,16.1,-,N/A,,Overcast,270,2013-03-18 20:54:00
4:54 PM,46.0,37.0,71,29.81,10.0,West,11.5,20.7,N/A,,Overcast,270,2013-03-18 21:54:00
5:54 PM,45.0,37.0,74,29.85,10.0,West,6.9,-,N/A,,Overcast,270,2013-03-18 22:54:00
6:52 PM,44.6,35.6,71,29.87,10.0,West,6.9,-,N/A,,Mostly Cloudy,280,2013-03-18 23:52:00
6:54 PM,44.1,36.0,73,29.88,10.0,West,8.1,-,N/A,,Mostly Cloudy,270,2013-03-18 23:54:00
7:54 PM,43.0,35.1,74,29.90,10.0,West,8.1,-,N/A,,Mostly Cloudy,270,2013-03-19 00:54:00
8:54 PM,37.0,32.0,82,29.92,10.0,WSW,5.8,-,N/A,,Clear,240,2013-03-19 01:54:00
9:54 PM,35.1,30.9,85,29.94,10.0,SW,4.6,-,N/A,,Clear,220,2013-03-19 02:54:00
10:54 PM,34.0,30.9,89,29.94,10.0,SW,4.6,-,N/A,,Clear,230,2013-03-19 03:54:00
11:54 PM,35.1,32.0,89,29.96,10.0,SW,8.1,-,N/A,,Clear,230,2013-03-19 04:54:00